Stations météo

Publicité
Aurillac, France (7549): Température de l'air & dewpoint: 16.07.2018 10:00:00 - 22.07.2018 10:00:00 (CEST)Aurillac, France (7549): Température de l'air 5cm: 16.07.2018 10:00:00 - 22.07.2018 10:00:00 (CEST)Aurillac, France (7549): Température de l'air -20cm & Température de l'air -100cm: 16.07.2018 10:00:00 - 22.07.2018 10:00:00 (CEST)Aurillac, France (7549): Vitesse du vent & gusts: 16.07.2018 10:00:00 - 22.07.2018 10:00:00 (CEST)Aurillac, France (7549): Direction du vent: 16.07.2018 10:00:00 - 22.07.2018 10:00:00 (CEST)Aurillac, France (7549): reduced air pressure: 16.07.2018 10:00:00 - 22.07.2018 10:00:00 (CEST)Aurillac, France (7549): visibility: 16.07.2018 10:00:00 - 22.07.2018 10:00:00 (CEST)Aurillac, France (7549): Ensoleillement: 16.07.2018 10:00:00 - 22.07.2018 10:00:00 (CEST)Aurillac, France (7549): Quantités de précipitations: 16.07.2018 10:00:00 - 22.07.2018 10:00:00 (CEST)
Date & Time tt [°C] td [°C] tt 5cm [°C] tt -20cm [°C] tt -100cm [°C] ff [km/h] ff [knt] fx [km/h] fx [knt] dd ppp [hPa] vv [km] sd [min] rr [mm]
22.07.2018 10:00:00 16,5 12,5 18,6 20,2 17,2 6 4 11 6 W 1016,2 20 58 0,0
22.07.2018 09:00:00 15,0 11,2 11,7 20,3 17,3 2 1 6 3 ENE 1016,7 20 40 0,0
22.07.2018 08:00:00 11,6 9,8 7,1 20,4 17,2 2 1 5 3 SE 1017,6 14 51 0,0
22.07.2018 07:00:00 9,6 9,3 5,3 20,5 17,3 0 0 3 2 N 1017,9 14 11 0,0
22.07.2018 06:00:00 9,2 8,6 5,5 20,6 17,3 0 0 4 2 N 1017,9 19 0 0,0
22.07.2018 05:00:00 9,8 9,2 5,9 20,7 17,2 3 2 9 5 E 1017,9 16 0 0,0
22.07.2018 04:00:00 10,1 9,2 6,8 20,8 17,2 4 2 6 3 SE 1018,0 18 0 0,0
22.07.2018 03:00:00 10,6 9,5 7,8 20,9 17,3 6 3 7 4 ESE 1018,1 20 0 0,0
22.07.2018 02:00:00 11,4 10,0 8,8 20,9 17,2 4 2 12 6 ESE 1018,2 26 0 0,0
22.07.2018 01:00:00 13,2 10,0 8,4 20,9 17,2 6 3 10 5 NNE 1017,6 32 0 0,0
22.07.2018 00:00:00 13,2 10,6 9,0 20,9 17,2 3 2 6 4 SW 1017,6 39 0 0,0
21.07.2018 23:00:00 14,4 10,2 9,6 20,9 17,2 0 0 6 4 N 1017,2 42 0 0,0
21.07.2018 22:00:00 15,6 10,4 12,4 20,9 17,2 6 3 11 6 WNW 1016,3 26 0 0,0
21.07.2018 21:00:00 17,4 10,0 15,2 20,9 17,2 6 3 16 9 N 1015,3 55 0 0,0
21.07.2018 20:00:00 18,1 10,7 18,1 20,8 17,2 9 5 23 13 W 1014,9 59 2 0,0
21.07.2018 19:00:00 19,8 10,2 19,9 20,7 17,2 14 8 22 12 WNW 1014,4 56 21 0,0
21.07.2018 18:00:00 19,8 9,4 21,7 20,7 17,2 16 9 28 15 WNW 1014,5 41 38 0,0
21.07.2018 17:00:00 19,3 9,8 21,8 20,6 17,2 15 8 26 14 WNW 1014,6 56 25 0,0
21.07.2018 16:00:00 19,6 10,0 23,1 20,6 17,2 13 7 26 14 WNW 1014,7 49 33 0,0
21.07.2018 15:00:00 19,6 11,6 21,5 20,6 17,2 17 9 29 16 WNW 1014,8 20 24 0,0
21.07.2018 14:00:00 18,5 10,3 21,7 20,6 17,2 16 9 23 13 WNW 1015,4 54 14 0,0
21.07.2018 13:00:00 18,2 10,3 20,1 20,6 17,2 13 7 24 13 WNW 1015,6 55 16 0,0
21.07.2018 12:00:00 18,2 10,8 21,1 20,7 17,2 11 6 24 13 WNW 1015,5 19 49 0,0
21.07.2018 11:00:00 16,8 11,3 17,3 20,8 17,2 12 6 22 12 NW 1015,7 19 44 0,0
21.07.2018 10:00:00 15,7 11,9 18,1 20,8 17,2 10 5 18 10 WNW 1016,1 20 50 0,0
21.07.2018 09:00:00 14,6 11,2 14,8 20,9 17,2 11 6 15 8 NW 1016,2 20 57 0,0
21.07.2018 08:00:00 13,9 11,1 13,4 21,0 17,2 8 4 11 6 NW 1016,1 44 12 0,0
21.07.2018 07:00:00 13,2 10,7 13,2 21,1 17,2 4 2 18 10 NW 1016,2 38 0 0,0
21.07.2018 06:00:00 13,4 10,6 13,4 21,2 17,2 13 7 19 10 WNW 1016,0 42 0 0,0
21.07.2018 05:00:00 13,8 10,6 13,6 21,2 17,2 11 6 22 12 WNW 1015,5 44 0 0,0
21.07.2018 04:00:00 14,4 10,8 14,3 21,3 17,2 16 9 29 16 WNW 1015,5 46 0 0,0
21.07.2018 03:00:00 15,5 12,3 15,3 21,3 17,2 18 10 30 16 WNW 1015,1 41 0 0,0
21.07.2018 02:00:00 16,7 13,4 16,5 21,4 17,2 16 9 25 14 WNW 1014,5 39 0 0,0
21.07.2018 01:00:00 17,9 14,2 17,5 21,4 17,2 10 6 19 10 WNW 1014,3 44 0 0,0
21.07.2018 00:00:00 18,4 14,7 18,1 21,4 17,2 11 6 22 12 WNW 1014,1 50 0 0,0
20.07.2018 23:00:00 18,9 15,9 18,2 21,4 17,2 9 5 16 8 W 1013,9 47 0 0,0
20.07.2018 22:00:00 18,8 16,9 18,3 21,4 17,2 6 4 11 6 W 1013,6 30 5 0,0
20.07.2018 21:00:00 20,0 16,6 19,7 21,3 17,2 4 2 12 7 N 1012,7 39 42 0,0
20.07.2018 20:00:00 19,3 16,7 19,4 21,3 17,2 8 4 26 14 WNW 1012,2 39 0 0,0
20.07.2018 19:00:00 21,7 16,6 21,3 21,2 17,2 6 4 29 16 NNW 1011,6 38 7 0,0
20.07.2018 18:00:00 21,7 16,2 22,1 21,1 17,2 20 11 30 16 WNW 1012,6 42 0 0,0
20.07.2018 17:00:00 23,2 15,5 24,0 21,0 17,2 16 9 25 14 NW 1012,3 49 8 0,0
20.07.2018 16:00:00 24,6 15,5 26,8 20,9 17,2 17 9 27 15 WNW 1012,5 17 31 0,0
20.07.2018 15:00:00 24,8 15,7 26,4 20,9 17,2 16 9 27 15 W 1012,5 20 34 0,0
20.07.2018 14:00:00 23,6 15,6 26,5 20,9 17,2 10 5 24 13 WNW 1012,9 20 32 0,0
20.07.2018 13:00:00 23,9 16,4 25,5 20,9 17,2 12 6 23 12 SSW 1013,3 19 44 0,0
20.07.2018 12:00:00 22,6 15,4 26,3 20,9 17,1 15 8 22 12 SW 1013,9 20 25 0,0
20.07.2018 11:00:00 23,3 15,6 27,0 21,0 17,2 6 4 19 10 S 1013,7 19 57 0,0
20.07.2018 10:00:00 21,5 16,2 21,1 21,0 17,2 7 4 17 9 SSW 1014,4 44 57 0,0
20.07.2018 09:00:00 19,2 15,5 18,7 21,1 17,2 12 6 21 11 E 1014,8 44 4 0,0
20.07.2018 08:00:00 18,3 15,4 16,5 21,2 17,2 9 5 15 8 E 1015,2 41 0 0,0
20.07.2018 07:00:00 17,4 14,7 16,1 21,3 17,2 6 3 8 5 ENE 1015,0 36 0 0,0
20.07.2018 06:00:00 17,2 14,5 16,2 21,3 17,2 8 5 10 6 E 1014,9 38 0 0,0
20.07.2018 05:00:00 17,2 14,3 16,2 21,4 17,2 4 2 11 6 E 1014,7 41 0 0,0
20.07.2018 04:00:00 17,5 14,2 15,0 21,4 17,2 6 3 12 6 E 1014,7 45 0 0,0
20.07.2018 03:00:00 16,5 14,0 14,5 21,4 17,2 2 1 13 7 S 1015,1 50 0 0,0
20.07.2018 02:00:00 17,3 14,2 14,8 21,4 17,2 9 5 14 8 E 1015,0 55 0 0,0
20.07.2018 01:00:00 18,0 14,7 15,3 21,4 17,2 8 4 15 8 E 1015,2 50 0 0,0
20.07.2018 00:00:00 18,5 15,0 16,0 21,3 17,2 8 5 10 6 E 1015,1 53 0 0,0
19.07.2018 23:00:00 20,8 15,3 16,0 21,2 17,1 4 2 9 5 NE 1014,3 60 0 0,0
19.07.2018 22:00:00 24,0 14,1 18,9 21,1 17,2 3 2 8 4 NNW 1013,2 41 1 0,0
19.07.2018 21:00:00 26,1 15,2 24,0 20,9 17,2 5 3 11 6 NW 1012,3 45 56 0,0
19.07.2018 20:00:00 28,0 13,9 29,6 20,8 17,1 8 4 13 7 WNW 1011,7 58 58 0,0
19.07.2018 19:00:00 28,8 13,1 33,3 20,6 17,1 7 4 14 8 WNW 1011,8 58 60 0,0
19.07.2018 18:00:00 28,7 13,8 34,0 20,5 17,2 6 3 18 10 W 1012,0 59 60 0,0
19.07.2018 17:00:00 28,8 13,9 33,3 20,4 17,2 5 3 18 10 WSW 1012,2 20 58 0,0
19.07.2018 16:00:00 28,3 13,8 34,3 20,3 17,2 8 5 18 10 NW 1012,6 20 60 0,0
19.07.2018 15:00:00 27,9 13,8 34,7 20,2 17,1 8 5 16 9 WNW 1013,0 53 60 0,0
19.07.2018 14:00:00 26,8 15,2 33,8 20,2 17,1 9 5 16 9 WNW 1013,7 19 60 0,0
19.07.2018 13:00:00 26,1 14,2 32,4 20,2 17,1 3 2 12 6 SW 1014,3 20 60 0,0
19.07.2018 12:00:00 25,3 14,1 30,5 20,2 17,1 4 2 9 5 S 1014,7 20 60 0,0
19.07.2018 11:00:00 23,5 15,0 28,3 20,3 17,2 2 1 9 5 W 1015,3 53 60 0,0
19.07.2018 10:00:00 21,6 14,3 23,6 20,4 17,1 3 1 6 3 SW 1015,8 19 60 0,0
19.07.2018 09:00:00 18,9 15,0 16,7 20,5 17,1 2 1 4 2 SE 1016,2 48 60 0,0
19.07.2018 08:00:00 15,7 13,9 12,8 20,6 17,2 4 2 7 4 E 1016,8 16 60 0,0
19.07.2018 07:00:00 13,6 13,3 11,0 20,7 17,2 3 2 6 4 ESE 1017,3 12 14 0,0
19.07.2018 06:00:00 13,7 13,2 11,5 20,7 17,2 3 2 8 5 ESE 1017,2 2,3 0 0,0
19.07.2018 05:00:00 14,3 14,0 11,6 20,8 17,2 5 3 9 5 ESE 1016,9 0,6 0 0,0
19.07.2018 04:00:00 15,5 13,5 13,0 20,9 17,2 8 4 13 7 NE 1016,9 49 0 0,0
19.07.2018 03:00:00 16,0 14,9 13,3 20,9 17,2 7 4 11 6 NE 1016,8 21 0 0,0
19.07.2018 02:00:00 16,2 15,4 14,6 20,9 17,2 6 4 9 5 NW 1017,2 20 0 0,0
19.07.2018 01:00:00 17,1 15,4 15,5 20,9 17,2 2 1 11 6 E 1017,2 50 0 0,0
19.07.2018 00:00:00 17,7 16,2 16,3 20,9 17,1 5 3 19 11 ENE 1016,6 41 0 0,0
18.07.2018 23:00:00 18,1 17,1 16,8 20,8 17,2 8 4 11 6 E 1016,1 20 0 0,4
18.07.2018 22:00:00 18,4 16,4 17,0 20,7 17,1 3 1 25 14 ENE 1016,6 11 0 1,2
18.07.2018 21:00:00 19,1 15,4 17,4 20,6 17,2 18 10 58 31 WNW 1016,7 22 0 0,0
18.07.2018 20:00:00 24,2 14,0 22,9 20,4 17,2 9 5 13 7 W 1013,4 44 0 0,0
18.07.2018 19:00:00 25,9 13,1 25,7 20,3 17,1 6 4 17 9 NW 1012,3 60 0 0,0
18.07.2018 18:00:00 27,2 11,2 29,0 20,1 17,1 12 6 25 14 N 1011,9 45 49 0,0
18.07.2018 17:00:00 27,9 10,6 33,6 20,0 17,1 13 7 23 12 NNW 1011,9 29 60 0,0
18.07.2018 16:00:00 27,8 10,9 34,0 19,9 17,2 13 7 27 14 N 1012,3 19 60 0,0
18.07.2018 15:00:00 27,5 13,1 33,5 19,8 17,2 7 4 16 9 W 1012,8 20 60 0,0
18.07.2018 14:00:00 26,0 14,1 32,2 19,8 17,2 15 8 32 17 SSE 1013,7 17 60 0,0
18.07.2018 13:00:00 25,4 14,2 30,7 19,8 17,2 5 3 14 8 NW 1014,5 48 60 0,0
18.07.2018 12:00:00 24,2 13,1 30,3 19,8 17,1 7 4 14 8 NW 1015,0 60 60 0,0
18.07.2018 11:00:00 24,0 14,1 27,7 19,9 17,2 4 2 10 5 WSW 1015,4 57 60 0,0
18.07.2018 10:00:00 21,8 14,2 24,2 20,0 17,2 8 4 13 7 ESE 1016,2 56 60 0,0
18.07.2018 09:00:00 19,7 13,2 18,9 20,0 17,1 3 2 6 4 ESE 1016,7 51 60 0,0
18.07.2018 08:00:00 16,1 12,3 11,4 20,1 17,1 5 3 10 6 E 1017,4 59 60 0,0
18.07.2018 07:00:00 12,6 11,0 9,4 20,2 17,1 6 4 12 6 ESE 1018,5 48 15 0,2
18.07.2018 06:00:00 12,5 11,2 9,3 20,3 17,2 6 4 12 6 E 1018,5 43 0 0,0
18.07.2018 05:00:00 12,0 11,2 9,7 20,4 17,1 9 5 12 6 E 1018,5 29 0 0,0
18.07.2018 04:00:00 12,3 11,5 10,6 20,4 17,2 9 5 13 7 E 1019,0 44 0 0,0
18.07.2018 03:00:00 12,9 12,3 10,5 20,4 17,1 9 5 11 6 E 1019,1 34 0 0,0
18.07.2018 02:00:00 13,4 12,5 10,3 20,4 17,1 4 2 9 5 ESE 1019,3 31 0 0,0
18.07.2018 01:00:00 14,7 12,6 11,2 20,4 17,1 5 3 9 5 ENE 1019,1 49 0 0,0
18.07.2018 00:00:00 16,1 13,2 13,2 20,4 17,1 3 2 12 6 E 1018,8 48 0 0,0
17.07.2018 23:00:00 17,7 13,6 12,9 20,3 17,1 6 3 8 4 NNE 1018,5 59 0 0,0
17.07.2018 22:00:00 19,2 12,7 15,3 20,2 17,1 0 0 10 5 N 1017,9 13 5 0,0
17.07.2018 21:00:00 21,9 13,3 20,5 20,1 17,1 8 4 16 9 NW 1016,8 60 60 0,0
17.07.2018 20:00:00 23,2 13,1 25,2 20,0 17,1 11 6 21 11 NW 1016,3 52 57 0,0
17.07.2018 19:00:00 23,8 13,3 28,1 19,9 17,1 13 7 29 15 WNW 1016,4 60 60 0,0
17.07.2018 18:00:00 23,9 13,1 28,3 19,8 17,1 12 6 26 14 WNW 1016,8 59 60 0,0
17.07.2018 17:00:00 23,6 12,9 29,7 19,7 17,1 13 7 24 13 NNW 1017,4 19 60 0,0
17.07.2018 16:00:00 23,1 13,8 26,3 19,7 17,1 10 6 23 12 NNW 1017,7 19 51 0,0
17.07.2018 15:00:00 21,9 13,3 24,5 19,7 17,1 8 5 24 13 WNW 1018,5 60 35 0,0
17.07.2018 14:00:00 21,1 13,5 24,5 19,6 17,1 9 5 22 12 NW 1019,2 53 38 0,0
17.07.2018 13:00:00 19,6 13,3 22,4 19,6 17,1 10 5 19 11 N 1019,8 20 22 0,0
17.07.2018 12:00:00 18,9 13,3 19,0 19,7 17,1 10 6 17 9 N 1020,1 46 11 0,0
17.07.2018 11:00:00 17,0 13,1 18,9 19,7 17,1 14 8 21 12 WNW 1020,5 20 10 0,0
17.07.2018 10:00:00 16,7 14,0 17,4 19,8 17,1 13 7 17 9 NW 1020,3 19 3 0,0
17.07.2018 09:00:00 15,7 14,4 15,8 19,9 17,1 10 5 16 9 WNW 1020,4 12 0 0,0
17.07.2018 08:00:00 15,4 14,8 15,3 19,9 17,1 6 3 8 5 W 1020,3 8 0 0,0
17.07.2018 07:00:00 15,1 14,8 14,9 20,0 17,1 5 3 14 7 WNW 1020,0 6 0 0,0
17.07.2018 06:00:00 15,1 14,6 14,8 20,0 17,1 10 5 19 10 NW 1019,7 7 0 0,0
17.07.2018 05:00:00 15,4 15,1 14,1 20,1 17,1 11 6 16 9 WNW 1019,3 6 0 0,0
17.07.2018 04:00:00 15,1 14,8 13,8 20,2 17,1 0 0 10 5 N 1019,4 7 0 0,0
17.07.2018 03:00:00 15,0 14,5 14,6 20,3 17,1 6 3 9 5 NNW 1019,9 12 0 0,0
17.07.2018 02:00:00 15,1 14,5 14,6 20,3 17,0 5 3 6 3 W 1019,8 11 0 0,0
17.07.2018 01:00:00 15,5 14,0 14,5 20,4 17,1 3 2 11 6 E 1020,0 12 0 0,4
17.07.2018 00:00:00 15,3 13,8 14,2 20,5 17,1 8 4 23 12 NNE 1019,6 13 0 23,8
16.07.2018 23:00:00 16,5 14,1 15,4 20,6 17,1 13 7 26 14 N 1019,0 1,3 0 7,4
16.07.2018 22:00:00 17,9 15,7 17,5 20,6 17,1 6 3 22 12 W 1017,7 30 8 0,0
16.07.2018 21:00:00 18,6 16,2 18,5 20,6 17,1 16 9 26 14 W 1016,8 33 2 0,0
16.07.2018 20:00:00 19,8 15,9 20,4 20,7 17,1 17 9 27 14 NW 1015,6 20 20 0,0
16.07.2018 19:00:00 19,8 15,2 20,3 20,7 17,0 15 8 24 13 NW 1014,9 47 2 0,0
16.07.2018 18:00:00 19,8 15,6 20,2 20,7 17,1 2 1 12 7 WSW 1014,6 20 0 0,0
16.07.2018 17:00:00 18,9 15,2 19,5 20,8 17,1 9 5 16 8 N 1014,3 20 0 0,0
16.07.2018 16:00:00 18,0 14,1 18,6 20,8 17,0 11 6 19 10 NW 1014,6 20 0 0,0
16.07.2018 15:00:00 17,8 14,7 18,5 20,9 17,1 13 7 20 11 WNW 1014,6 47 0 0,0
16.07.2018 14:00:00 17,9 14,4 18,2 21,0 17,0 14 8 22 12 W 1014,6 45 0 0,0
16.07.2018 13:00:00 18,5 14,8 19,7 21,0 17,0 10 6 20 11 W 1014,9 46 0 0,0
16.07.2018 12:00:00 18,7 13,5 19,4 21,1 17,0 8 4 26 14 NW 1013,7 58 0 0,0
16.07.2018 11:00:00 17,8 13,9 16,4 21,2 17,0 11 6 28 15 N 1013,8 20 0 0,0
16.07.2018 10:00:00 16,5 14,3 15,9 21,3 17,0 13 7 27 15 N 1014,2 17 0 0,4

tt = Température de l'air
td = dewpoint
tt 5cm = Température de l'air 5cm
tt -20cm = Température de l'air -20cm
tt -100cm = Température de l'air -100cm
ff = Vitesse du vent
fx = gusts
dd = Direction du vent
ppp = reduced air pressure
vv = visibility
sd = Ensoleillement
rr = Quantités de précipitations

stations d'obs. à proximité